Menahga, MN

12:44 PM CST on December 06, 2016 (GMT -0600)
Park Rapids Municipal | | Change Station

Elev 1440 ft 46.90 °N, 95.07 °W | Updated 22 minutes ago

Light Snow
Light Snow
23 °F
Feels Like 8 °F
N
21
Wind Variable Wind from SW

Today
High -- | Low -- °F
--% Chance of Precip.
Yesterday
High -- | Low -- °F
Precip. -- in
Pressure 29.36 in
Visibility 1.0 miles
Clouds Overcast 1700 ft
Windchill 8 °F
Dew Point 16 °F
Humidity 74%
Rainfall 0.00 in
Snow Depth Not available.
7:50 AM 4:32 PM
Waxing Crescent, 44% visible
SPECI KPKD 061822Z AUTO 23018KT 1SM -SN OVC017 M05/M09 A2936 RMK AO2 P0000 T10501089
Pressure 29.36 in
Visibility 1.0 miles
Clouds Overcast 1700 ft
Windchill 8 °F
Dew Point 16 °F
Humidity 74%
Rainfall 0.00 in
Snow Depth Not available.
7:50 AM 4:32 PM
Waxing Crescent, 44% visible
SPECI KPKD 061822Z AUTO 23018KT 1SM -SN OVC017 M05/M09 A2936 RMK AO2 P0000 T10501089

10-Day Weather Forecast

Almanac

Astronomy

Dec. 06, 2016 Rise Set
Actual Time
Civil Twilight
Nautical Twilight
Astronomical Twilight
Moon
Length of Visible Light
Length of Day
Tomorrow will be .
, % of the Moon is Illuminated

Today's Extremes

State Highs State Lows

Community

WunderPhotos

Upload Photos

1,956,001 photos uploaded!

WunderBlog® & News

Nearby

Air Quality

  Air Quality AQ Index Pollutant
Not available.

Snow Depth

Station Depth Elevation

Earthquake Activity

City Distance Mag. Time & Date
Minimum magnitude displayed is 2.5.

Coastal Water Temperatures

Place Temperature

Stations

Nearby Weather Stations

Station Location Temp. Windchill Dew Point Humidity Wind Precip. Elev Updated Type
                   

Watches & Warnings

There are currently no watches in effect.